Baton Rouge Metropolitan, Ryan Field
KBTR : now visible

Airfield :











YOU CAN JOIN US ON...

 
LOGIN :

Register | Disclaimer

   EN    FR    IT 

 









Legend :    VFR   Marginal VFR   IFR   Intensive IFR   Very Intensive IFR
Visi :
Ceiling :
>= 8 km
>= 3000ft
5 to 8 km
1000 to 3000 ft
1500m to 5 km
500 to 1000 ft
800 to 1500m
200 to 500 ft
< 800m
< 200 ft
Symbols :   Thunderstorms  Fog  Heavy snow  Heavy precipitations  Wind > 20 kt






- Airport Elevation : 70 ft
- IATA code : BTR


KBTR - Baton Rouge Metropolitan, Ryan Field

CURRENT METAR :
  • 082053Z 05003KT 10SM CLR 17/11 A3002 RMK AO2 SLP164 T01720106 56022

EXPIRED METARs :
  • 081953Z VRB04KT 10SM OVC038 16/10 A3004 RMK AO2 SLP170 T01560100
  • 081853Z 05005KT 10SM BKN037 15/11 A3006 RMK AO2 SLP178 T01500106 $

TAF KBTR
Valid from the 08 at 18:00 until the 09 at 18:00 UTC


081728Z 0818/0918 02005KT P6SM SCT015
FM082300 00000KT P6SM FEW250
FM090700 VRB03KT 5SM BR BKN003
FM091400 VRB04KT 3/4SM BR BKN003
FM091700 15006KT 5SM BR BKN008
KZHU FIR / North America



MET'MAP, your aeronautical weather chart ! - Copyright ORBIFLY December 2007 - Disclaimer

ORBIFLY MET'MAP TEAM :

Programming & Development : Alexandra Zaïnal
Concept & original design : Baudouin d'Aumeries
Assistance for programming : Marc-Olivier Méhu
Technical & hardware support : Manuel Goepfert

Contact : metmap@orbifly.com




SOURCES & CREDITS :

   NOAA       Earth
Advisory